Lid_Strength_Index
19 19 20 19 19 19 19 19 20 23 22 20 20 18 19 19 18 18 19 17 15 15 14 14 13 12 11 10 9 9 8 7 6 6 5 5 4 3
19 20 20 19 19 19 19 19 20 22 24 21 20 20 19 19 19 19 19 17 17 16 15 14 13 13 12 11 10 9 8 7 7 6 6 5 5 4
20 20 20 20 21 21 20 21 21 21 24 22 20 20 20 20 20 19 19 19 19 16 15 14 14 13 12 11 11 10 9 8 7 7 6 6 6 5
20 20 21 20 22 22 22 22 22 21 22 23 21 21 21 20 20 20 19 18 18 17 15 14 13 13 12 12 11 11 10 9 9 8 8 7 7 6
21 21 21 21 22 22 22 22 22 21 21 22 22 20 20 19 19 18 18 18 17 15 14 14 13 13 13 12 12 11 11 10 10 10 9 8 8 8
21 21 21 21 22 22 22 21 21 22 21 21 21 20 19 18 17 18 18 17 17 16 15 15 14 13 12 12 12 12 11 11 10 9 9 9 10 10
21 21 21 20 18 19 21 21 21 22 22 22 21 19 18 18 18 18 18 18 18 17 17 16 16 16 15 13 13 12 11 11 10 10 10 10 10 10
22 21 20 19 18 16 16 16 19 23 23 22 19 18 18 17 17 18 18 19 20 16 17 17 15 16 15 14 12 11 11 10 10 10 10 9 9 8
21 20 19 19 19 18 16 15 15 14 14 16 18 17 17 17 16 17 17 17 17 16 17 19 15 16 14 14 11 11 11 10 10 10 9 8 7 6
20 19 19 19 18 19 19 19 18 18 17 17 17 16 16 15 15 15 16 18 18 17 17 21 18 18 16 15 12 11 11 10 9 8 8 7 7 6
20 19 19 18 17 16 18 20 19 18 15 14 13 13 13 13 13 17 21 21 22 21 18 19 19 18 17 16 14 11 10 8 8 7 7 7 6 6
19 19 18 18 16 16 18 22 23 19 17 20 17 16 17 17 15 17 20 22 22 23 17 19 19 19 21 18 16 13 12 9 9 8 8 7 7 8
20 19 19 16 16 15 15 18 18 18 19 22 22 21 20 19 19 18 18 19 21 21 17 17 19 19 20 20 17 15 14 12 11 10 9 8 8 8
20 19 19 16 15 15 15 16 15 17 26 27 25 23 22 20 19 18 17 17 17 18 17 17 19 19 20 20 20 16 15 14 12 11 11 9 8 7
19 18 16 16 15 17 18 18 19 23 26 28 25 22 20 19 18 18 18 18 18 17 15 16 17 16 16 18 19 18 16 15 13 12 11 11 10 9
17 17 17 19 19 20 22 21 22 22 22 23 22 20 19 20 20 19 20 19 20 19 17 14 14 14 17 18 18 20 18 19 15 13 11 11 10 9
23 23 25 24 24 24 24 24 23 22 22 22 22 21 21 20 20 19 20 20 21 21 19 16 14 15 16 18 20 19 19 18 16 14 12 12 11 10
23 25 25 24 24 24 25 24 24 23 22 22 22 22 21 21 21 20 20 21 22 20 19 17 17 18 19 18 16 18 18 18 16 15 13 13 12 10
24 24 25 25 26 25 25 25 25 23 22 22 22 22 22 22 22 22 21 21 21 19 18 17 18 19 22 24 20 15 18 18 17 16 13 12 12 10
26 27 28 28 27 26 26 26 25 25 24 23 24 24 24 24 23 22 21 22 21 20 19 18 18 19 21 22 22 19 15 17 17 18 16 13 9 8
27 27 28 28 27 28 28 28 30 29 27 27 29 27 25 24 23 22 21 20 20 20 21 20 18 16 18 18 21 21 18 15 15 17 16 16 15 11
26 26 28 29 29 30 31 32 33 32 29 29 29 26 24 23 22 22 21 20 20 20 20 19 18 18 19 21 22 21 20 19 16 15 14 14 15 15
26 27 28 30 32 32 33 35 33 29 29 30 28 26 24 24 22 21 19 20 20 20 20 20 19 19 20 20 21 22 21 21 20 20 18 14 12 11